Showing default

ITAMSAT, 22826

Orbit data source: Space-Track

ITAMSAT, 22826 is a payload satellite owned by Satellife (IT) in SSO that was launched on Sun, 26 Sep 1993 UTC via an ARIANE 40 launch vehicle from the French Guiana (FRGUI). Payload-class satellites include a variety of spacecraft equipped with specific instruments for various scientific and technological missions. These include communications satellites like Starlink; space stations such as the ISS; scientific satellites like the Hubble; Earth observation satellites from companies like Planet Labs, Umbra, and HawkEye 360; GPS; miniature CubeSats for education and research; and military/defense satellites.

Loading next visibility...
Identifier
22826, 1993-061D
Orbit
SSO
Country
Flag of ITIT
Related business
Manufacturer
SSTL
Mission
Partially operational Commercial Communications
Bus & Motor
UOSAT, Unknown motor
Mass
50 kg wet, 50 kg dry
Launch date (UTC)
1993-09-26 (33 years ago)
Launch vehicle
ARIANE 40
Launch site
French Guiana (FRGUI)
Object type
Payload
Rocket body
Debris
Shape & HBR
Box + 1 Ant, 3.3 m
Radar Cross Section
0.597 m², Medium (>0.1 m² and < 1m²)

Expand to show TLE details & history
Last TLE update: 9 hours ago

TLE from 9 hours ago
0 ITAMSAT
1 22826U 93061D   26130.16162728  .00000050  00000-0  35548-4 0  9998
2 22826  98.6842 197.4989 0008717 188.0362 172.0682 14.31357542701871
Epoch: 2026-05-10T03:52Z
TLE epoch observation values (Epoch: 2026-05-10T03:52:44.596Z)
Latitude
-0.00011°
Longitude
-88.65558°
Altitude
796.315 km
Speed
7.452 km/s
True Right ascension
13h 09m 59s
True Declination
0° 00' 00"
Sunlit
Object was in full shadow at epoch
Visualization orbit readout
Latitude
Unknown
Longitude
Unknown
Altitude
Unknown
Speed
Unknown
Apparent Right ascension
Unknown
Apparent Declination
Unknown
Sunlit
N/A
Visualization observer readout
Local Sidereal Time
21:33:42
Azimuth
Unknown
Elevation
Unknown
Doppler factor
Unknown
Orbital elements
Apogee altitude
790.582 km
Perigee altitude
778.095 km
Semi-major axis
7,162.476 km
Eccentricity
0.00087
Inclination
98.6842°
RAAN
197.4989°
Arg. of periapsis
188.0362°
True anomaly
172.08197°
Mean anomaly
172.0682°
Eccentric anomaly
172.07509°
Mean motion
3.58054 °/min
Orbital period
100.54 mins
BSTAR
0.000035548
Loading maneuver chart data...
Computing Atmospheric mass density...
Loading historical data...
Loading historical data...
Loading historical data...
Loading historical data...
Loading historical data...
Loading historical data...
Loading historical data...

Documentation

Showing up to 5 results
|